Home   Weather   Panipat   Past weeks

Flag for India Past Weather in Panipat, Haryana, India — Yesterday and Last 2 Weeks

Now
59 °F

Fog.


Feels Like: 58 °F
Forecast: 52 / 80 °F
Wind: 6 mph from Southeast

Location: New Delhi Palam Airport

Current Time: Dec 10, 2016 at 1:02:33 am

Latest Report: Dec 10, 2016 at 12:30 am


Visibility: 0 mi

Pressure: 29.95 "Hg

Humidity: 94%

Dew Point: 57 °F

Location of PanipatLocation

Past Weather in Panipat — Graph

°F

Panipat Temperature Yesterday

Maximum temperature yesterday: 81 °F (at 2:00 pm)
Minimum temperature yesterday: 50 °F (at 7:00 am)
Average temperature yesterday: 64 °F

High & Low Weather Summary for the Past Weeks

 TemperatureHumidityPressure
High86 °F (Nov 26, 1:30 pm)100% (Dec 1, 9:30 am)30.18 "Hg (Dec 1, 9:30 am)
Low50 °F (Dec 3, 7:00 am)18% (Nov 27, 3:30 pm)29.86 "Hg (Nov 25, 5:00 pm)
Average65 °F63%30.01 "Hg
* Reported Nov 24 11:30 pm — Dec 10 12:00 am, Panipat, Weather by CustomWeather, © 2016

Note: Actual official high and low records may vary slightly from our data, if they occured in-between our weather recording intervals... More about our weather records

Advertising

Panipat Weather History for the Previous 24 Hours

Scroll right to see more
 ConditionsComfort  
Time TempWeatherWind HumidityBarometerVisibility
12:00 am
Sat, Dec 10
59 °FFog.6 mph94%29.95 "Hg1 mi
11:30 pm
Fri, Dec 9
61 °FFog.6 mph94%29.95 "Hg1 mi
11:00 pm61 °FFog.6 mph94%29.95 "Hg1 mi
10:30 pm63 °FFog.6 mph94%29.95 "Hg1 mi
10:00 pm63 °FFog.6 mph94%29.95 "Hg1 mi
9:30 pm63 °FFog.5 mph88%29.92 "Hg1 mi
9:00 pm63 °FClear.6 mph83%29.92 "Hg1 mi
8:30 pm64 °FClear.No wind73%29.92 "Hg1 mi
8:00 pm66 °FClear.No wind68%29.92 "Hg1 mi
7:30 pm68 °FClear.No wind56%29.92 "Hg1 mi
7:00 pm68 °FClear.No wind56%29.89 "Hg1 mi
6:00 pm72 °FClear.No wind50%29.89 "Hg1 mi
5:30 pm73 °FClear.No wind47%29.89 "Hg1 mi
5:00 pm79 °FClear.3 mph34%29.89 "Hg1 mi
4:30 pm79 °FClear.5 mph34%29.89 "Hg1 mi
4:00 pm79 °FClear.6 mph32%29.89 "Hg1 mi
3:30 pm79 °FClear.6 mph32%29.89 "Hg1 mi
3:00 pm81 °FClear.6 mph30%29.89 "Hg1 mi
2:30 pm81 °FClear.6 mph30%29.89 "Hg1 mi
2:00 pm81 °FClear.6 mph32%29.92 "Hg1 mi
1:30 pm77 °FClear.5 mph36%29.95 "Hg1 mi
1:00 pm75 °FClear.5 mph41%29.95 "Hg1 mi
12:30 pm72 °FClear.3 mph57%29.95 "Hg1 mi
12:00 pm72 °FClear.3 mph57%29.98 "Hg1 mi
11:30 am72 °FClear.3 mph57%30.01 "Hg1 mi
11:00 am70 °FClear.No wind60%30.01 "Hg1 mi
10:00 am66 °FClear.No wind68%30.01 "Hg1 mi
9:30 am63 °FClear.No wind73%30.01 "Hg1 mi
9:00 am59 °FFog.No wind77%30.01 "Hg1 mi
8:30 am57 °FFog.No wind77%29.98 "Hg1 mi
7:30 am50 °FFog.No wind94%29.98 "Hg0 mi
7:00 am50 °FFog.No wind94%29.98 "Hg0 mi
6:30 am52 °FFog.No wind88%29.95 "Hg1 mi
6:00 am52 °FFog.No wind88%29.95 "Hg1 mi
5:00 am52 °FFog.No wind100%29.95 "Hg1 mi
4:30 am52 °FFog.No wind100%29.92 "Hg1 mi
4:00 am52 °FFog.No wind100%29.92 "Hg1 mi
3:30 am54 °FFog.No wind88%29.92 "Hg0 mi
3:00 am55 °FFog.No wind88%29.95 "Hg0 mi
2:30 am55 °FFog.No wind88%29.95 "Hg0 mi
2:00 am55 °FFog.No wind88%29.95 "Hg0 mi
1:30 am57 °FFog.No wind88%29.98 "Hg1 mi
1:00 am57 °FFog.No wind88%29.98 "Hg1 mi
Weather by CustomWeather, © 2016

See weather overviewHow to use our weather pages